#timestamp,LO_Frequency,Hit,StdDev 
1588028415.9,286046997.1,N
1588028435.7,286046999.2,N
1588028455.5,286046998.8,N
1588028475.4,286046997.0,N
1588028495.2,286046999.1,N
1588028515.0,286046998.2,N
1588028515.9,286046998.2,N
1588028535.8,286046998.2,N
1588028555.6,286047002.8,N
1588028575.5,286046998.4,N
1588028595.3,286046997.2,N
1588028615.1,286046996.6,N
1588028635.9,286046998.6,N
1588028655.7,286046998.7,N
1588028675.5,286046998.4,N
1588028695.4,286046999.0,N
1588028715.2,286047000.8,N
1588028735.1,286046999.9,N
1588028736.0,286046999.9,N
1588028755.8,286047001.2,N
1588028775.7,286047000.9,N
1588028795.5,286047002.0,N
1588028815.3,286046998.2,N
1588028835.2,286046997.3,N
1588028855.0,286046997.7,N
1588028855.9,286046997.7,N
1588028875.7,286046999.4,N
1588028895.6,286046998.8,N
1588028915.4,286046998.8,N
1588028935.3,286046998.4,N
1588028955.1,286046999.3,N
1588028956.0,286046999.3,N
1588028975.8,286046998.6,N
1588028995.7,286047000.6,N
1588029015.5,286047002.8,N
1588029035.4,286047000.2,N
1588029055.2,286047002.1,N
1588029075.0,286047000.9,N
1588029075.9,286047000.9,N
1588029095.8,286046999.3,N
1588029115.6,286046998.9,N
1588029135.4,286047000.5,N
1588029155.3,286046999.9,N
1588029175.1,286047002.7,N
1588029195.9,286047000.5,N
1588029215.7,286047000.8,N
1588029235.5,286046998.4,N
1588029255.4,286046996.5,N
1588029275.2,286046998.2,N
1588029295.1,286047000.1,N
1588029296.0,286047000.1,N
1588029315.8,286047000.5,N
1588029335.6,286046998.8,N
1588029355.5,286046999.0,N
1588029375.3,286046999.0,N
1588029395.1,286046997.5,N
1588029415.9,286046996.5,N
1588029435.7,286046999.0,N
1588029455.6,286046996.5,N
1588029475.4,286046999.6,N
1588029495.2,286046995.3,N
1588029515.1,286046995.7,N
1588029516.0,286046995.7,N
1588029535.8,286046994.1,N
1588029555.7,286046995.7,N
1588029575.5,286046994.0,N
1588029595.3,286046992.3,Y
1588029615.2,286046994.8,P
1588029635.0,286046992.8,P
1588029635.9,286046992.8,P
1588029655.8,286046992.0,Y
1588029675.6,286046997.4,P
1588029695.4,286046998.7,N
1588029715.3,286047001.0,N
1588029735.1,286047002.3,N
1588029755.8,286047004.3,N
1588029775.7,286046999.7,N
1588029795.5,286046999.7,N
1588029815.4,286047002.0,N
1588029835.2,286047000.3,N
1588029855.0,286047001.0,N
1588029855.9,286047001.0,N
1588029875.8,286047000.4,N
1588029895.6,286047004.3,N
1588029915.5,286047000.0,N
1588029935.3,286047000.8,N
1588029955.1,286047000.7,N
1588029975.9,286046998.8,N
1588029995.7,286046997.7,N
1588030015.6,286046997.7,N
1588030035.4,286046995.0,N
1588030055.2,286046996.9,N
1588030075.1,286046999.6,N
1588030076.0,286046999.6,N
1588030095.8,286046996.9,N
1588030115.7,286046997.7,N
1588030135.5,286046999.6,N
1588030155.3,286046999.1,N
1588030175.2,286046997.2,N
1588030195.0,286046997.3,N
1588030195.9,286046997.3,N
1588030215.7,286046996.2,N
1588030235.6,286046996.0,N
1588030255.4,286046998.0,N
1588030275.3,286046997.8,N
1588030295.1,286046996.7,N
1588030296.0,286046996.7,N
1588030315.8,286046996.8,N
1588030335.7,286046999.5,N
1588030355.5,286046998.8,N
1588030375.4,286046996.7,N
1588030395.2,286046997.1,N
1588030415.0,286046997.3,N
1588030415.9,286046997.3,N
1588030435.8,286046998.0,N
1588030455.6,286046998.8,N
1588030475.5,286046998.8,N
1588030495.3,286046998.7,N
1588030515.1,286047000.4,N
1588030535.9,286046998.1,N
1588030555.7,286047001.1,N
1588030575.5,286047001.0,N
1588030595.4,286047002.2,N
1588030615.2,286047003.6,N
1588030635.1,286047004.2,N
1588030636.0,286047004.2,N
1588030655.8,286047001.0,N
1588030675.6,286046999.9,N
1588030695.5,286047002.5,N
1588030715.3,286047002.3,N
1588030735.2,286047001.2,N
1588030755.0,286046999.8,N
1588030755.9,286046999.8,N
1588030775.7,286047002.3,N
1588030795.6,286046999.7,N
1588030815.4,286047001.9,N
1588030835.3,286047003.6,N
1588030855.1,286047001.8,N
1588030856.0,286047001.8,N
1588030875.8,286047002.7,N
1588030895.7,286046999.5,N
1588030915.5,286046999.1,N
1588030935.3,286047001.1,N
1588030955.2,286047001.2,N
1588030975.0,286046999.8,N
1588030975.9,286046999.8,N
1588030995.8,286047005.6,Y
1588031015.6,286047000.2,P
1588031035.4,286046998.3,P
1588031055.3,286047002.4,N
1588031075.1,286047001.4,N
1588031095.9,286047002.1,N
1588031115.7,286047002.5,N
1588031135.5,286047000.6,N
1588031155.4,286047000.4,N
1588031175.2,286047001.2,N
1588031195.1,286047002.8,N
1588031196.0,286047002.8,N
1588031215.8,286046999.7,N
1588031235.6,286047002.6,N
1588031255.5,286047001.9,N
1588031275.3,286047002.7,N
1588031295.1,286047000.0,N
1588031315.9,286047002.2,N
1588031335.7,286047003.1,N
1588031355.6,286047004.8,Y
1588031375.4,286047001.8,P
1588031395.3,286047004.3,P
1588031415.1,286047001.7,N
1588031416.0,286047001.7,N
1588031435.8,286047001.6,N
1588031455.7,286047001.0,N
1588031475.5,286047000.5,N
1588031495.3,286046998.1,N
1588031515.2,286047000.5,N
1588031535.0,286047000.0,N
1588031535.9,286047000.0,N
1588031555.8,286046999.7,N
1588031575.6,286047002.2,N
1588031595.4,286047001.5,N
1588031615.3,286047004.2,Y
1588031635.1,286047002.7,P
1588031655.9,286046998.5,N
1588031675.7,286047000.6,N
1588031695.5,286047002.4,N
1588031715.4,286047003.5,N
1588031735.2,286047001.4,N
1588031755.0,286047002.8,N
1588031755.9,286047002.8,N
1588031775.8,286047000.6,N
1588031795.6,286047000.3,N
1588031815.5,286047001.7,N
1588031835.3,286047002.2,N
1588031855.1,286047000.0,N
1588031875.9,286047002.8,N
1588031895.7,286047001.8,N
1588031915.6,286047001.8,N
1588031935.4,286047003.7,N
1588031955.2,286047000.2,N
1588031975.1,286047000.5,N
1588031976.0,286047000.5,N
1588031995.8,286047002.2,N
